EWG2KD LDSP-EDDK

Flight info

Callsign EWG2KD
Flight time 1h 33m
Altitude 38000
Route ZDA DCT MONFA DCT BAKOR DCT SOTOV DCT KPT DCT KUNOD L608 KOVAN T844 ASKIK T840 GULKO GULKO1B
Aircraft A320/M-SDE3FGHIRWY/LB1

Departure

Time 2026-04-26 12:07
Airport Split Saint Jerome Airport (LDSP)

Arrival

Time 2026-04-26 13:40
Airport Cologne Bonn Airport (EDDK)
Time Latitude Longitude Altitude Speed Heading
2026-04-26 11:32 43.53499 16.29651 68 ft 0 kts 171°
2026-04-26 11:55 43.53497 16.29656 68 ft 1 kts 139°
2026-04-26 11:56 43.53512 16.29686 61 ft 8 kts 30°
2026-04-26 11:56 43.53561 16.29656 60 ft 7 kts 323°
2026-04-26 11:56 43.53599 16.29616 64 ft 8 kts 323°
2026-04-26 11:56 43.53663 16.29622 61 ft 13 kts 47°
2026-04-26 11:57 43.53730 16.29743 65 ft 19 kts 53°
2026-04-26 11:57 43.53810 16.29889 62 ft 19 kts 52°
2026-04-26 11:57 43.53871 16.29999 61 ft 9 kts 52°
2026-04-26 11:57 43.53906 16.30055 59 ft 4 kts 36°
2026-04-26 11:58 43.53913 16.30060 68 ft 0 kts 24°
2026-04-26 12:03 43.53952 16.30080 62 ft 11 kts 18°
2026-04-26 12:03 43.54037 16.30113 64 ft 16 kts 12°
2026-04-26 12:03 43.54120 16.30205 57 ft 19 kts 52°
2026-04-26 12:04 43.54218 16.30380 53 ft 25 kts 52°
2026-04-26 12:04 43.54330 16.30583 54 ft 29 kts 52°
2026-04-26 12:04 43.54448 16.30796 51 ft 28 kts 52°
2026-04-26 12:04 43.54544 16.30971 51 ft 10 kts 54°
2026-04-26 12:05 43.54549 16.31050 53 ft 7 kts 79°
2026-04-26 12:05 43.54579 16.31043 53 ft 5 kts 289°
2026-04-26 12:05 43.54568 16.31011 50 ft 0 kts 232°
2026-04-26 12:06 43.54557 16.30992 51 ft 13 kts 232°
2026-04-26 12:06 43.54331 16.30582 54 ft 90 kts 232°
2026-04-26 12:07 43.53831 16.29681 84 ft 144 kts 233°
2026-04-26 12:07 43.53182 16.28490 537 ft 156 kts 232°
2026-04-26 12:07 43.52523 16.27307 1361 ft 156 kts 233°
2026-04-26 12:07 43.51859 16.26099 2045 ft 164 kts 232°
2026-04-26 12:08 43.51128 16.24760 2452 ft 191 kts 233°
2026-04-26 12:08 43.50275 16.23193 2837 ft 215 kts 234°
2026-04-26 12:08 43.49338 16.21475 3516 ft 232 kts 234°
2026-04-26 12:08 43.48353 16.19676 4359 ft 237 kts 235°
2026-04-26 12:09 43.47366 16.17834 5150 ft 245 kts 239°
2026-04-26 12:09 43.46653 16.15624 5620 ft 263 kts 261°
2026-04-26 12:09 43.46773 16.13108 6319 ft 268 kts 291°
2026-04-26 12:09 43.47781 16.10991 7215 ft 269 kts 319°
2026-04-26 12:10 43.49300 16.09417 7987 ft 277 kts 326°
2026-04-26 12:10 43.50880 16.07847 8860 ft 283 kts 325°
2026-04-26 12:10 43.52482 16.06231 9704 ft 287 kts 325°
2026-04-26 12:10 43.54096 16.04584 10556 ft 290 kts 324°
2026-04-26 12:11 43.55722 16.02913 11442 ft 292 kts 324°
2026-04-26 12:11 43.57359 16.01135 12113 ft 304 kts 321°
2026-04-26 12:11 43.59023 15.99163 12452 ft 324 kts 320°
2026-04-26 12:11 43.60721 15.97052 13063 ft 332 kts 319°
2026-04-26 12:12 43.62441 15.94884 13775 ft 337 kts 319°
2026-04-26 12:12 43.64185 15.92690 14518 ft 340 kts 319°
2026-04-26 12:12 43.65950 15.90484 15222 ft 344 kts 319°
2026-04-26 12:12 43.67131 15.89018 15658 ft 346 kts 319°
2026-04-26 12:13 43.69549 15.86037 16549 ft 351 kts 319°
2026-04-26 12:13 43.71381 15.83787 17205 ft 354 kts 319°
2026-04-26 12:13 43.73230 15.81520 17843 ft 357 kts 318°
2026-04-26 12:13 43.75096 15.79232 18475 ft 360 kts 318°
2026-04-26 12:14 43.76341 15.77701 18880 ft 362 kts 319°
2026-04-26 12:14 43.78238 15.75363 19451 ft 366 kts 319°
2026-04-26 12:14 43.80145 15.73005 20006 ft 370 kts 319°
2026-04-26 12:14 43.82080 15.70612 20545 ft 375 kts 319°
2026-04-26 12:15 43.83968 15.68275 21054 ft 378 kts 319°
2026-04-26 12:15 43.85965 15.65798 21571 ft 382 kts 319°
2026-04-26 12:15 43.87953 15.63332 22068 ft 385 kts 319°
2026-04-26 12:15 43.89961 15.60839 22541 ft 389 kts 319°
2026-04-26 12:16 43.91988 15.58323 23035 ft 393 kts 319°
2026-04-26 12:16 43.94033 15.55784 23490 ft 396 kts 319°
2026-04-26 12:16 43.96096 15.53220 23947 ft 400 kts 319°
2026-04-26 12:16 43.98179 15.50632 24393 ft 404 kts 319°
2026-04-26 12:17 44.00275 15.48026 24870 ft 406 kts 319°
2026-04-26 12:17 44.02382 15.45398 25332 ft 408 kts 319°
2026-04-26 12:17 44.04493 15.42761 25788 ft 409 kts 319°
2026-04-26 12:17 44.06613 15.40107 26234 ft 411 kts 319°
2026-04-26 12:18 44.08740 15.37441 26662 ft 413 kts 319°
2026-04-26 12:18 44.10843 15.34710 27080 ft 414 kts 316°
2026-04-26 12:18 44.12884 15.31867 27503 ft 416 kts 315°
2026-04-26 12:18 44.14886 15.28945 27915 ft 418 kts 314°
2026-04-26 12:19 44.16875 15.25979 28306 ft 419 kts 313°
2026-04-26 12:19 44.18866 15.23004 28706 ft 421 kts 313°
2026-04-26 12:19 44.20872 15.20030 29071 ft 422 kts 314°
2026-04-26 12:19 44.22897 15.17056 29433 ft 423 kts 314°
2026-04-26 12:20 44.24938 15.14080 29786 ft 426 kts 314°
2026-04-26 12:20 44.26990 15.11099 30145 ft 427 kts 314°
2026-04-26 12:20 44.29051 15.08109 30469 ft 429 kts 314°
2026-04-26 12:20 44.31125 15.05098 30776 ft 431 kts 314°
2026-04-26 12:21 44.33201 15.02077 31100 ft 432 kts 314°
2026-04-26 12:21 44.35284 14.99038 31386 ft 434 kts 313°
2026-04-26 12:21 44.37370 14.95990 31667 ft 435 kts 313°
2026-04-26 12:21 44.39456 14.92937 32073 ft 433 kts 313°
2026-04-26 12:22 44.41529 14.89894 32485 ft 431 kts 313°
2026-04-26 12:22 44.43595 14.86856 32865 ft 430 kts 313°
2026-04-26 12:22 44.45631 14.83859 33247 ft 428 kts 313°
2026-04-26 12:22 44.47681 14.80841 33607 ft 428 kts 313°
2026-04-26 12:23 44.49728 14.77824 33969 ft 426 kts 313°
2026-04-26 12:23 44.51792 14.74779 34334 ft 425 kts 313°
2026-04-26 12:23 44.53826 14.71778 34670 ft 424 kts 313°
2026-04-26 12:23 44.55857 14.68777 34982 ft 423 kts 313°
2026-04-26 12:24 44.57880 14.65780 35282 ft 423 kts 313°
2026-04-26 12:24 44.59899 14.62782 35576 ft 422 kts 313°
2026-04-26 12:24 44.61917 14.59789 35868 ft 421 kts 313°
2026-04-26 12:25 44.65959 14.53786 36107 ft 427 kts 313°
2026-04-26 12:25 44.68005 14.50739 36109 ft 429 kts 313°
2026-04-26 12:25 44.72110 14.44625 36109 ft 430 kts 313°
2026-04-26 12:26 44.76223 14.38500 36110 ft 430 kts 313°
2026-04-26 12:26 44.80344 14.32333 36105 ft 430 kts 313°
2026-04-26 12:27 44.84449 14.26170 36110 ft 431 kts 313°
2026-04-26 12:27 44.88522 14.20042 36107 ft 430 kts 313°
2026-04-26 12:28 44.92638 14.13844 36109 ft 430 kts 313°
2026-04-26 12:28 44.96730 14.07672 36109 ft 431 kts 312°
2026-04-26 12:29 45.00817 14.01488 36108 ft 430 kts 312°
2026-04-26 12:30 45.06937 13.92194 36113 ft 430 kts 312°
2026-04-26 12:30 45.11014 13.85990 36110 ft 430 kts 312°
2026-04-26 12:31 45.17122 13.76662 36109 ft 430 kts 312°
2026-04-26 12:31 45.21188 13.70436 36107 ft 430 kts 312°
2026-04-26 12:32 45.25258 13.64189 36108 ft 430 kts 312°
2026-04-26 12:33 45.31377 13.54791 36109 ft 430 kts 312°
2026-04-26 12:33 45.35430 13.48541 36111 ft 430 kts 311°
2026-04-26 12:34 45.39477 13.42282 36110 ft 430 kts 311°
2026-04-26 12:34 45.43526 13.36012 36269 ft 431 kts 311°
2026-04-26 12:34 45.45556 13.32852 36446 ft 433 kts 311°
2026-04-26 12:35 45.47591 13.29681 36615 ft 434 kts 311°
2026-04-26 12:35 45.49647 13.26530 36842 ft 434 kts 313°
2026-04-26 12:35 45.51779 13.23504 37111 ft 432 kts 315°
2026-04-26 12:35 45.53971 13.20571 37363 ft 431 kts 316°
2026-04-26 12:36 45.56182 13.17697 37619 ft 429 kts 316°
2026-04-26 12:36 45.58392 13.14834 37808 ft 429 kts 316°
2026-04-26 12:36 45.60595 13.11946 37968 ft 430 kts 316°
2026-04-26 12:36 45.62780 13.09038 38092 ft 430 kts 315°
2026-04-26 12:37 45.64961 13.06095 38110 ft 431 kts 315°
2026-04-26 12:37 45.69298 13.00185 38109 ft 431 kts 315°
2026-04-26 12:38 45.73610 12.94291 38111 ft 431 kts 315°
2026-04-26 12:38 45.77988 12.88332 38110 ft 431 kts 315°
2026-04-26 12:39 45.82335 12.82411 38110 ft 431 kts 315°
2026-04-26 12:39 45.86677 12.76482 38111 ft 431 kts 315°
2026-04-26 12:40 45.91006 12.70557 38115 ft 431 kts 314°
2026-04-26 12:40 45.95351 12.64589 38116 ft 431 kts 314°
2026-04-26 12:41 45.99685 12.58621 38119 ft 431 kts 314°
2026-04-26 12:41 46.04016 12.52642 38128 ft 432 kts 314°
2026-04-26 12:42 46.08346 12.46659 38134 ft 431 kts 314°
2026-04-26 12:42 46.12674 12.40658 38143 ft 432 kts 314°
2026-04-26 12:43 46.17003 12.34644 38151 ft 432 kts 314°
2026-04-26 12:43 46.21326 12.28620 38151 ft 432 kts 314°
2026-04-26 12:44 46.25642 12.22585 38150 ft 432 kts 314°
2026-04-26 12:44 46.29258 12.17527 38159 ft 431 kts 314°
2026-04-26 12:45 46.33573 12.11492 38179 ft 431 kts 314°
2026-04-26 12:45 46.37882 12.05449 38189 ft 431 kts 314°
2026-04-26 12:46 46.42186 11.99384 38201 ft 432 kts 314°
2026-04-26 12:46 46.46486 11.93307 38206 ft 432 kts 313°
2026-04-26 12:47 46.50797 11.87216 38211 ft 432 kts 313°
2026-04-26 12:47 46.55098 11.81123 38219 ft 432 kts 313°
2026-04-26 12:48 46.59397 11.75004 38222 ft 432 kts 313°
2026-04-26 12:48 46.63638 11.68831 38188 ft 431 kts 311°
2026-04-26 12:49 46.67768 11.62436 38175 ft 431 kts 311°
2026-04-26 12:49 46.71842 11.56041 38162 ft 431 kts 311°
2026-04-26 12:50 46.75951 11.49672 38159 ft 431 kts 311°
2026-04-26 12:50 46.80079 11.43315 38154 ft 431 kts 311°
2026-04-26 12:51 46.84201 11.36944 38144 ft 431 kts 311°
2026-04-26 12:51 46.88308 11.30559 38150 ft 431 kts 311°
2026-04-26 12:52 46.92411 11.24160 38130 ft 431 kts 311°
2026-04-26 12:52 46.96926 11.18395 38139 ft 434 kts 322°
2026-04-26 12:53 47.01461 11.13629 38151 ft 434 kts 322°
2026-04-26 12:53 47.06348 11.08441 38153 ft 434 kts 322°
2026-04-26 12:54 47.10452 11.04086 38153 ft 434 kts 322°
2026-04-26 12:54 47.15341 10.98895 38160 ft 434 kts 321°
2026-04-26 12:55 47.20076 10.93851 38166 ft 434 kts 321°
2026-04-26 12:55 47.24459 10.89175 38171 ft 434 kts 321°
2026-04-26 12:56 47.29350 10.83949 38174 ft 434 kts 321°
2026-04-26 12:56 47.34227 10.78710 38181 ft 434 kts 321°
2026-04-26 12:57 47.39109 10.73469 38189 ft 434 kts 321°
2026-04-26 12:57 47.43965 10.68246 38195 ft 434 kts 321°
2026-04-26 12:58 47.51305 10.60312 38204 ft 434 kts 321°
2026-04-26 12:58 47.56177 10.55046 38203 ft 434 kts 321°
2026-04-26 12:59 47.61021 10.49787 38207 ft 433 kts 321°
2026-04-26 12:59 47.65916 10.44449 38209 ft 433 kts 321°
2026-04-26 13:00 47.70736 10.39182 38213 ft 433 kts 321°
2026-04-26 13:00 47.75216 10.34278 38223 ft 434 kts 320°
2026-04-26 13:01 47.79934 10.28697 38230 ft 433 kts 318°
2026-04-26 13:01 47.84516 10.22971 38233 ft 432 kts 317°
2026-04-26 13:02 47.89147 10.17217 38243 ft 433 kts 318°
2026-04-26 13:02 47.93803 10.11509 38245 ft 433 kts 318°
2026-04-26 13:03 47.98456 10.05819 38246 ft 433 kts 318°
2026-04-26 13:03 48.03111 10.00109 38244 ft 433 kts 318°
2026-04-26 13:04 48.07759 9.94367 38246 ft 433 kts 318°
2026-04-26 13:04 48.12429 9.88579 38233 ft 433 kts 318°
2026-04-26 13:05 48.17071 9.82822 38227 ft 433 kts 318°
2026-04-26 13:05 48.21711 9.77066 38228 ft 433 kts 318°
2026-04-26 13:06 48.26348 9.71288 38226 ft 433 kts 317°
2026-04-26 13:06 48.30984 9.65491 38228 ft 434 kts 317°
2026-04-26 13:07 48.35619 9.59679 38231 ft 434 kts 317°
2026-04-26 13:07 48.40227 9.53809 38221 ft 434 kts 317°
2026-04-26 13:08 48.44824 9.47900 38222 ft 434 kts 317°
2026-04-26 13:08 48.48720 9.42869 38224 ft 434 kts 317°
2026-04-26 13:09 48.53250 9.37031 38223 ft 434 kts 317°
2026-04-26 13:09 48.57846 9.31101 38227 ft 434 kts 317°
2026-04-26 13:10 48.62684 9.25515 38224 ft 438 kts 328°
2026-04-26 13:10 48.68253 9.21702 38222 ft 440 kts 334°
2026-04-26 13:11 48.73874 9.17990 38216 ft 440 kts 333°
2026-04-26 13:11 48.79481 9.14276 38217 ft 440 kts 333°
2026-04-26 13:12 48.84075 9.11215 38212 ft 440 kts 333°
2026-04-26 13:12 48.89748 9.07647 38219 ft 443 kts 339°
2026-04-26 13:13 48.95598 9.04712 38218 ft 443 kts 339°
2026-04-26 13:13 49.01497 9.01759 38221 ft 443 kts 339°
2026-04-26 13:14 49.07348 8.98816 38222 ft 443 kts 339°
2026-04-26 13:14 49.13206 8.95866 38232 ft 443 kts 339°
2026-04-26 13:15 49.19056 8.92896 38232 ft 443 kts 339°
2026-04-26 13:15 49.24899 8.89918 38242 ft 443 kts 339°
2026-04-26 13:16 49.30751 8.86921 38248 ft 444 kts 339°
2026-04-26 13:16 49.36612 8.83937 38252 ft 444 kts 339°
2026-04-26 13:17 49.42503 8.81012 37661 ft 446 kts 340°
2026-04-26 13:17 49.45465 8.79686 37117 ft 443 kts 341°
2026-04-26 13:18 49.51363 8.77198 36016 ft 436 kts 341°
2026-04-26 13:18 49.54285 8.75966 35461 ft 434 kts 341°
2026-04-26 13:18 49.60058 8.73470 34408 ft 428 kts 341°
2026-04-26 13:19 49.62943 8.72206 33903 ft 424 kts 340°
2026-04-26 13:19 49.65733 8.70974 33400 ft 421 kts 340°
2026-04-26 13:19 49.68387 8.69802 32936 ft 419 kts 340°
2026-04-26 13:19 49.71191 8.68560 32434 ft 417 kts 340°
2026-04-26 13:20 49.73975 8.67325 31932 ft 415 kts 340°
2026-04-26 13:20 49.76742 8.66095 31435 ft 413 kts 340°
2026-04-26 13:20 49.79493 8.64872 30925 ft 410 kts 340°
2026-04-26 13:20 49.82219 8.63659 30430 ft 407 kts 340°
2026-04-26 13:21 49.84937 8.62450 29928 ft 405 kts 340°
2026-04-26 13:21 49.86727 8.61655 29595 ft 403 kts 340°
2026-04-26 13:21 49.90316 8.60055 28925 ft 399 kts 340°
2026-04-26 13:21 49.92970 8.58868 28431 ft 396 kts 340°
2026-04-26 13:22 49.95618 8.57683 27925 ft 394 kts 341°
2026-04-26 13:22 49.98241 8.56511 27426 ft 391 kts 341°
2026-04-26 13:22 50.00853 8.55346 26923 ft 389 kts 341°
2026-04-26 13:22 50.03441 8.54189 26408 ft 386 kts 341°
2026-04-26 13:23 50.06007 8.53023 25923 ft 383 kts 340°
2026-04-26 13:23 50.08569 8.51744 25416 ft 380 kts 338°
2026-04-26 13:23 50.11053 8.50405 24915 ft 377 kts 338°
2026-04-26 13:23 50.13516 8.49035 24413 ft 374 kts 337°
2026-04-26 13:24 50.15955 8.47669 23912 ft 372 kts 338°
2026-04-26 13:24 50.18386 8.46319 23409 ft 370 kts 338°
2026-04-26 13:24 50.20798 8.45000 22900 ft 367 kts 338°
2026-04-26 13:24 50.23216 8.43680 22404 ft 367 kts 338°
2026-04-26 13:25 50.25626 8.42369 21918 ft 366 kts 338°
2026-04-26 13:25 50.28031 8.41058 21417 ft 366 kts 338°
2026-04-26 13:25 50.30296 8.39312 20912 ft 362 kts 325°
2026-04-26 13:25 50.32410 8.37202 20413 ft 360 kts 326°
2026-04-26 13:26 50.34525 8.35091 19901 ft 360 kts 326°
2026-04-26 13:26 50.36628 8.32985 19394 ft 358 kts 326°
2026-04-26 13:26 50.38732 8.30884 18907 ft 358 kts 326°
2026-04-26 13:26 50.40826 8.28788 18406 ft 358 kts 326°
2026-04-26 13:27 50.42924 8.26701 17897 ft 357 kts 327°
2026-04-26 13:27 50.45016 8.24615 17397 ft 355 kts 326°
2026-04-26 13:27 50.47099 8.22538 16899 ft 353 kts 327°
2026-04-26 13:27 50.49174 8.20457 16403 ft 353 kts 327°
2026-04-26 13:28 50.51255 8.18365 15895 ft 352 kts 327°
2026-04-26 13:28 50.53331 8.16277 15385 ft 351 kts 327°
2026-04-26 13:28 50.55384 8.14214 14885 ft 349 kts 327°
2026-04-26 13:28 50.57426 8.12160 14386 ft 348 kts 327°
2026-04-26 13:29 50.59457 8.10116 13883 ft 346 kts 327°
2026-04-26 13:29 50.60799 8.08764 13548 ft 344 kts 327°
2026-04-26 13:29 50.63476 8.06051 12870 ft 338 kts 327°
2026-04-26 13:29 50.65398 8.04100 12479 ft 319 kts 327°
2026-04-26 13:30 50.67219 8.02253 12105 ft 305 kts 327°
2026-04-26 13:30 50.68967 8.00477 11722 ft 292 kts 327°
2026-04-26 13:30 50.70646 7.98769 11334 ft 284 kts 327°
2026-04-26 13:30 50.72302 7.97076 10863 ft 282 kts 325°
2026-04-26 13:31 50.73730 7.94979 10391 ft 281 kts 308°
2026-04-26 13:31 50.74648 7.92284 9912 ft 280 kts 289°
2026-04-26 13:31 50.74963 7.89252 9437 ft 282 kts 270°
2026-04-26 13:31 50.74738 7.86170 9030 ft 283 kts 263°
2026-04-26 13:32 50.74456 7.83091 8629 ft 283 kts 263°
2026-04-26 13:32 50.74180 7.80025 8224 ft 282 kts 263°
2026-04-26 13:32 50.73906 7.76976 7815 ft 278 kts 263°
2026-04-26 13:32 50.73634 7.73960 7414 ft 277 kts 263°
2026-04-26 13:33 50.73366 7.70956 7013 ft 277 kts 263°
2026-04-26 13:33 50.73099 7.67962 6607 ft 276 kts 263°
2026-04-26 13:33 50.72836 7.65037 6295 ft 272 kts 263°
2026-04-26 13:33 50.72570 7.62127 6049 ft 265 kts 262°
2026-04-26 13:34 50.72308 7.59251 5793 ft 258 kts 262°
2026-04-26 13:34 50.72054 7.56481 5540 ft 252 kts 262°
2026-04-26 13:34 50.71805 7.53767 5289 ft 248 kts 263°
2026-04-26 13:34 50.71642 7.51998 5123 ft 245 kts 262°
2026-04-26 13:35 50.71317 7.48497 4783 ft 238 kts 262°
2026-04-26 13:35 50.71085 7.45937 4530 ft 235 kts 263°
2026-04-26 13:35 50.70856 7.43412 4287 ft 230 kts 263°
2026-04-26 13:35 50.70644 7.40908 4055 ft 231 kts 268°
2026-04-26 13:36 50.70885 7.38422 3800 ft 230 kts 293°
2026-04-26 13:36 50.71769 7.36365 3541 ft 225 kts 317°
2026-04-26 13:36 50.72908 7.34726 3308 ft 218 kts 320°
2026-04-26 13:36 50.74018 7.33142 3067 ft 212 kts 319°
2026-04-26 13:37 50.75089 7.31604 2835 ft 206 kts 318°
2026-04-26 13:37 50.76119 7.30123 2729 ft 195 kts 319°
2026-04-26 13:37 50.77100 7.28714 2534 ft 186 kts 319°
2026-04-26 13:37 50.78036 7.27368 2307 ft 179 kts 319°
2026-04-26 13:38 50.78937 7.26069 2070 ft 170 kts 319°
2026-04-26 13:38 50.79805 7.24819 1839 ft 162 kts 318°
2026-04-26 13:38 50.80622 7.23642 1636 ft 157 kts 319°
2026-04-26 13:38 50.81418 7.22485 1413 ft 155 kts 318°
2026-04-26 13:39 50.82237 7.21290 1169 ft 162 kts 317°
2026-04-26 13:39 50.83071 7.20088 977 ft 163 kts 317°
2026-04-26 13:39 50.83891 7.18902 792 ft 157 kts 318°
2026-04-26 13:39 50.84697 7.17755 592 ft 155 kts 318°
2026-04-26 13:40 50.85483 7.16622 382 ft 152 kts 317°
2026-04-26 13:40 50.86228 7.15544 292 ft 129 kts 317°
2026-04-26 13:40 50.86713 7.14841 270 ft 52 kts 317°
2026-04-26 13:40 50.86865 7.14507 261 ft 29 kts 288°
2026-04-26 13:41 50.86890 7.14299 257 ft 14 kts 279°
2026-04-26 13:41 50.86911 7.14138 255 ft 15 kts 289°
2026-04-26 13:41 50.86979 7.13999 249 ft 19 kts 317°
2026-04-26 13:41 50.87092 7.13836 242 ft 25 kts 317°
2026-04-26 13:42 50.87178 7.13711 239 ft 24 kts 317°
2026-04-26 13:42 50.87304 7.13528 234 ft 25 kts 318°
2026-04-26 13:42 50.87444 7.13327 235 ft 28 kts 318°
2026-04-26 13:42 50.87574 7.13138 235 ft 24 kts 317°
2026-04-26 13:43 50.87694 7.12964 233 ft 24 kts 317°
2026-04-26 13:43 50.87776 7.12844 234 ft 8 kts 316°
2026-04-26 13:43 50.87787 7.12747 232 ft 11 kts 261°
2026-04-26 13:43 50.87811 7.12641 233 ft 10 kts 317°
2026-04-26 13:44 50.87872 7.12606 232 ft 9 kts 339°
2026-04-26 13:44 50.87899 7.12539 232 ft 5 kts 289°
2026-04-26 13:44 50.87906 7.12501 232 ft 2 kts 287°
2026-04-26 13:44 50.87908 7.12495 232 ft 0 kts 287°
2026-04-26 13:45 50.87908 7.12493 232 ft 0 kts 287°
2026-04-26 13:45 50.87908 7.12492 232 ft 0 kts 287°